RH
58 56 54 52 50 47 43 35 27 20 15 11 9 7 6 5 5 5 6 6 7 9 11 13 17 20 24 26 26 26 25 25 26 27 29 31 31 31 29 25 21 16 13 11 9 9 9 11 13 16 18 19 21 22 24 23 19 16 14 22 37 52 64 65 66 65 63 66 68 68 67 68 68 68 71 71 71 70 70 71 69 64 57 52 58 67
57 56 54 52 49 45 39 31 24 17 12 9 7 6 6 6 6 6 6 7 9 10 13 16 20 23 26 27 26 26 25 26 27 29 31 33 33 33 31 27 23 18 14 11 10 9 10 12 15 17 19 21 23 25 26 24 19 15 12 21 36 52 63 65 65 65 65 69 70 68 63 66 67 68 70 71 72 72 72 71 67 61 56 50 58 70
58 56 54 51 47 42 35 27 21 15 10 8 6 6 6 6 6 6 7 8 10 12 16 20 23 26 27 27 26 26 26 27 29 31 32 33 33 32 30 26 23 18 15 12 10 10 11 13 16 18 20 23 26 27 27 24 19 15 12 21 36 51 62 63 64 66 69 70 70 67 59 65 67 68 69 71 72 72 69 68 64 59 57 53 59 68
57 56 54 51 45 39 31 24 18 13 9 7 6 6 6 6 6 7 8 9 11 14 18 23 26 28 28 27 26 26 26 27 29 31 32 31 30 29 26 24 20 17 14 12 10 11 12 15 17 20 23 26 28 29 29 25 19 14 11 21 36 51 61 62 65 67 68 71 65 60 60 67 69 69 70 71 71 72 71 67 61 59 62 61 65 72
57 56 53 49 42 35 28 21 15 11 8 7 6 6 6 6 7 7 8 10 13 17 21 25 27 28 27 26 26 26 26 28 29 30 30 29 27 25 22 20 17 15 13 12 11 12 14 17 20 23 26 30 32 32 30 25 19 14 11 21 36 50 59 62 65 67 66 70 61 55 66 70 70 69 71 70 71 72 72 68 62 59 67 68 71 74
57 55 51 46 39 31 24 18 13 9 7 6 6 6 6 7 7 8 9 12 15 19 23 26 27 27 26 26 26 26 27 28 29 29 28 26 23 20 18 16 15 14 13 12 12 13 15 19 22 26 30 34 35 35 31 25 18 13 11 22 36 49 59 63 66 68 69 66 59 57 68 70 70 69 70 71 72 72 72 71 65 63 69 71 71 70
57 54 49 42 35 28 21 15 11 8 6 6 5 6 6 7 8 9 10 13 17 21 25 26 26 26 26 26 26 27 28 29 28 28 26 23 20 17 15 14 13 13 13 13 13 15 18 21 25 29 33 36 38 36 32 25 18 13 11 22 36 50 59 64 66 67 68 58 55 59 70 70 69 68 69 71 72 73 73 72 69 67 71 71 70 69
56 52 46 39 31 24 18 13 10 8 6 6 5 6 6 7 8 10 11 15 18 22 25 25 25 25 25 26 27 29 30 30 29 27 25 21 17 14 13 12 12 13 13 13 15 17 20 24 28 33 37 39 39 37 32 25 18 13 10 23 37 50 60 65 67 67 64 51 53 62 70 71 71 70 71 71 73 74 72 72 70 68 71 69 71 74
54 49 43 36 28 21 16 12 9 7 6 6 6 6 7 8 8 10 12 15 19 22 24 24 24 24 25 28 30 32 33 33 31 29 25 20 16 14 12 12 13 13 13 14 16 18 23 27 32 36 40 42 41 38 32 25 18 12 10 23 37 50 60 65 67 65 54 48 53 63 70 71 72 72 72 72 73 73 69 72 69 67 68 70 74 76
52 46 40 33 26 19 14 10 8 6 6 6 6 7 7 8 9 10 12 15 18 22 25 26 26 27 29 33 35 37 38 37 34 31 26 22 18 15 14 14 14 14 14 15 17 21 26 31 36 40 43 44 42 38 32 25 18 13 11 23 37 50 59 65 66 59 43 46 55 65 71 71 72 73 72 72 72 72 68 71 71 69 68 72 76 77
50 44 37 30 24 18 12 9 7 6 5 6 6 7 8 8 10 11 13 15 19 23 27 30 33 35 38 40 41 43 43 41 37 33 28 24 20 18 16 15 14 14 14 16 19 23 29 35 40 44 46 45 43 39 33 25 18 13 11 23 37 50 60 65 61 51 38 47 57 66 71 71 72 73 73 73 73 73 70 71 71 72 73 74 75 75
47 41 35 28 22 16 11 8 6 5 5 6 7 7 8 9 10 13 16 19 23 27 31 34 38 42 46 47 47 47 46 43 40 35 30 25 21 19 17 15 14 14 14 17 21 26 33 40 44 47 47 46 43 39 33 26 19 14 12 23 36 48 58 60 53 43 39 50 60 68 72 73 73 73 74 74 74 73 72 71 71 72 74 76 77 76
45 39 33 26 20 15 10 7 6 5 6 7 7 8 9 10 12 15 19 24 29 35 39 41 43 46 49 51 51 51 49 45 41 36 31 26 22 19 16 14 14 14 16 19 24 30 38 44 47 49 48 46 43 39 33 26 20 15 13 23 35 45 51 51 45 40 43 53 63 70 72 73 73 74 74 73 73 73 72 73 72 72 71 73 75 76
42 36 30 24 18 13 9 7 6 6 7 7 8 9 10 11 14 18 23 29 35 42 47 48 49 49 50 52 53 53 51 46 41 36 31 25 21 18 16 14 14 15 18 22 27 34 42 47 50 50 49 47 43 39 33 26 20 15 14 23 33 42 45 43 41 41 47 57 66 71 72 72 74 74 73 74 74 73 74 73 73 72 70 68 70 72
40 33 27 21 16 11 8 7 6 7 7 8 9 10 11 12 16 21 27 34 41 47 53 53 52 51 51 52 54 54 52 48 42 36 29 24 20 18 15 14 15 17 20 26 32 39 45 50 51 51 49 46 42 38 32 25 19 15 14 22 31 38 39 39 40 44 52 61 68 72 72 73 74 74 73 74 74 74 75 72 72 72 71 64 65 69
37 30 24 18 13 10 7 7 7 8 8 9 10 11 11 13 17 23 31 39 47 53 57 55 52 50 49 52 54 55 54 49 43 36 28 22 18 16 14 15 17 20 24 30 36 43 48 51 52 51 48 45 41 36 30 24 18 15 14 22 30 35 36 38 43 49 57 65 70 73 72 73 74 75 74 75 75 74 75 73 71 71 72 70 68 69
35 28 21 16 11 8 7 7 7 8 9 10 10 11 12 15 20 26 35 44 52 57 59 57 55 52 50 51 53 54 54 49 43 35 27 21 17 15 15 17 20 24 29 35 41 47 51 52 52 51 48 44 40 34 28 22 17 14 14 22 29 34 36 41 47 54 61 68 72 73 72 73 74 75 74 75 75 75 74 73 73 73 73 71 70 70
32 25 19 14 10 8 7 7 8 9 10 11 11 12 13 17 23 31 40 49 56 59 59 58 57 56 55 54 54 53 53 49 42 33 26 20 17 16 17 20 24 29 34 40 45 50 52 53 52 50 47 43 38 32 26 20 15 12 14 22 29 34 38 44 51 58 65 70 73 74 73 73 73 74 74 74 74 74 75 74 74 75 75 76 74 71
30 23 16 12 9 7 7 8 9 10 11 12 12 13 14 18 25 33 43 52 58 60 59 58 57 58 58 57 55 53 52 48 41 33 25 20 18 18 20 25 29 34 39 44 49 52 53 53 52 49 46 42 36 31 25 18 13 11 15 23 29 34 41 48 55 61 67 71 73 74 74 73 73 74 75 75 74 74 76 75 75 75 77 76 74 73
27 20 14 10 8 7 7 9 10 12 13 13 14 14 15 20 26 35 45 53 58 60 59 58 58 59 59 57 55 53 51 46 39 31 24 20 20 22 26 30 35 40 44 48 51 53 53 53 51 49 45 41 35 29 23 17 12 10 15 23 30 36 44 51 58 63 68 72 74 74 73 73 73 73 75 75 75 74 76 75 74 74 77 77 76 75
25 18 12 9 8 8 9 10 12 14 15 15 14 15 17 22 28 37 47 54 57 58 57 58 58 59 58 56 54 51 48 44 36 29 22 20 22 26 32 36 41 44 48 51 53 53 53 52 50 48 44 40 34 28 22 15 10 10 15 23 30 38 46 53 59 64 68 72 74 74 74 73 73 73 74 75 75 75 76 76 75 74 76 77 76 76
22 16 11 9 8 9 10 12 13 15 15 15 15 16 18 23 31 39 49 54 56 56 55 56 57 57 56 53 50 47 44 39 32 25 21 22 26 32 38 42 45 47 50 52 53 53 52 51 49 47 43 38 33 27 21 14 9 9 15 23 31 39 48 55 60 64 69 72 74 74 74 74 73 73 74 75 76 76 76 77 76 75 74 77 77 76
19 13 10 9 10 10 12 13 14 15 16 15 16 17 20 27 35 43 51 55 55 54 52 53 53 52 51 48 45 42 39 33 26 22 21 26 31 38 43 46 47 48 50 51 52 52 51 50 48 45 42 37 32 26 20 13 9 9 15 23 32 40 49 55 60 64 69 72 74 74 74 74 73 73 74 75 76 76 76 77 76 75 74 76 77 76
17 13 10 10 10 11 13 14 15 15 15 15 16 18 22 30 39 48 55 55 52 50 48 47 46 45 44 42 39 36 33 27 23 22 24 30 36 42 46 47 47 48 49 50 50 50 49 48 46 43 40 36 31 25 19 12 8 8 14 23 32 41 49 56 60 64 68 71 73 74 74 74 74 74 74 75 76 76 77 77 77 77 75 75 76 77
16 13 10 10 11 12 13 14 15 16 16 16 18 20 25 34 42 48 51 50 47 44 43 42 41 40 38 36 34 31 27 23 22 24 29 35 40 44 47 47 47 47 47 48 48 47 46 45 43 41 38 35 30 25 19 12 8 8 13 23 32 41 50 55 60 64 68 71 73 74 75 74 74 74 74 75 76 76 77 76 77 77 75 75 76 77
15 12 11 11 11 12 13 15 16 17 17 18 19 23 29 37 43 47 47 45 43 41 40 39 38 36 33 32 30 27 23 21 23 28 34 38 42 44 46 46 46 46 46 46 46 45 44 43 41 39 37 34 30 25 19 12 7 7 13 22 32 41 49 55 60 63 67 70 72 74 75 75 74 74 74 75 75 76 77 76 77 77 77 76 76 77
15 12 11 11 12 13 14 16 17 18 18 19 21 26 32 40 45 46 45 43 41 40 40 38 34 30 27 26 25 24 22 23 27 32 37 40 42 44 45 45 45 44 44 44 43 43 41 40 39 37 35 33 29 25 19 12 8 7 12 21 31 41 49 55 59 63 66 69 71 73 75 75 75 75 75 75 75 76 77 76 76 77 77 76 76 76
14 12 11 11 12 13 15 17 18 18 18 19 23 28 35 43 46 46 45 43 40 39 38 35 30 25 22 21 21 22 23 26 30 35 39 41 43 44 44 44 43 43 42 42 41 40 39 37 36 35 34 32 29 25 19 13 8 6 10 20 30 40 49 54 59 62 65 68 70 72 75 75 75 75 75 75 76 76 77 77 77 76 77 76 76 76
13 12 11 12 13 14 16 17 17 18 18 20 24 30 38 45 48 48 45 40 37 34 32 28 24 21 18 19 21 23 25 29 33 37 39 41 42 43 43 43 42 41 40 39 39 38 36 35 34 33 32 31 28 24 19 14 8 6 9 19 29 39 48 54 58 61 64 67 69 72 74 75 75 75 75 76 76 76 76 77 77 76 76 76 76 76
13 11 11 12 13 14 16 17 17 17 18 21 26 32 40 46 48 47 42 34 29 26 24 21 19 18 18 20 23 26 28 32 35 37 39 41 42 42 42 41 41 40 38 37 36 35 35 33 32 32 31 30 28 24 20 14 9 6 8 17 27 37 46 53 57 61 64 66 68 71 74 75 75 75 76 76 76 76 76 77 77 77 76 76 76 75
12 11 11 12 13 14 16 16 17 17 18 22 27 34 40 44 44 40 33 25 20 18 17 17 16 17 18 21 25 28 31 34 36 37 39 40 41 41 41 40 39 38 37 36 35 33 33 32 31 31 30 30 28 25 20 15 10 7 7 15 24 34 44 51 56 60 63 65 68 70 74 75 76 76 76 76 76 76 76 77 77 77 76 76 76 75
12 11 11 12 13 14 16 16 17 17 19 23 29 35 40 40 37 32 24 18 14 13 14 15 16 18 20 24 27 30 32 34 36 38 39 40 40 40 39 38 38 37 35 34 33 32 31 30 30 30 29 29 28 25 21 16 11 7 6 13 22 31 41 49 54 59 63 64 67 69 73 74 75 76 76 76 76 76 76 76 77 77 77 77 76 75
12 11 11 12 13 15 16 16 16 17 19 24 30 34 37 35 30 25 19 15 13 12 13 15 17 19 22 25 28 30 32 35 36 37 38 39 39 39 38 37 36 35 34 33 32 31 30 29 28 28 28 28 27 25 22 17 12 8 6 12 19 28 38 46 52 58 62 64 66 68 71 74 75 76 76 76 76 76 76 76 76 77 77 76 76 75
12 11 11 12 14 15 16 16 16 18 20 25 30 33 33 29 25 20 16 14 13 13 14 17 18 20 23 26 28 30 32 34 36 36 37 38 38 37 36 36 35 34 33 32 31 30 29 28 27 26 26 26 26 25 22 18 13 9 6 11 19 27 35 43 50 56 60 62 64 67 70 73 74 75 76 76 76 76 76 76 76 76 76 76 76 76
11 11 11 13 14 15 16 16 16 18 21 26 29 30 29 25 21 17 15 13 13 14 15 18 20 22 23 25 27 29 31 33 35 35 36 37 37 36 35 34 33 33 32 31 31 30 29 28 26 26 25 25 25 24 23 19 15 10 6 10 18 27 35 42 48 53 57 59 61 65 69 71 73 74 75 76 76 76 76 76 76 76 76 76 76 75
11 11 12 13 14 15 16 16 16 18 22 26 28 27 24 21 18 16 15 13 13 14 16 18 19 21 23 24 26 27 30 32 33 34 35 35 35 35 35 33 32 31 31 30 30 29 28 27 26 25 24 24 24 24 23 20 16 11 7 10 18 28 37 43 47 51 52 54 57 62 68 70 72 73 74 75 75 76 76 76 76 76 76 76 75 75
11 11 12 13 14 16 16 16 17 19 24 26 26 24 20 18 17 16 15 14 14 14 16 17 19 21 22 23 24 25 27 28 29 31 31 32 33 33 33 32 31 30 30 29 29 28 27 26 25 24 23 23 23 23 24 21 16 12 8 8 15 27 40 45 47 47 47 48 53 60 67 69 70 72 73 73 74 75 75 75 76 76 76 75 74 74
11 12 12 14 15 16 16 16 17 19 24 25 24 20 17 16 16 16 15 14 14 14 16 18 20 22 24 25 25 25 25 26 26 27 28 28 29 30 31 31 30 30 29 28 27 27 26 25 24 23 23 22 22 23 24 21 18 13 10 7 11 22 38 46 48 45 42 44 50 58 65 68 69 70 71 72 73 74 74 75 75 75 76 75 74 73
11 12 13 14 15 16 16 16 17 19 23 23 21 18 15 15 15 16 15 14 14 15 17 20 23 26 29 30 29 29 28 28 28 29 28 28 27 27 28 28 28 28 28 27 26 26 25 25 24 23 22 22 22 22 23 22 19 15 11 8 9 15 28 42 46 45 41 44 50 58 65 67 68 69 70 71 72 72 73 73 74 74 75 75 74 72
12 12 13 14 15 16 16 16 17 19 22 22 19 16 13 14 14 15 15 15 15 16 19 23 28 32 36 38 38 38 38 39 40 40 40 38 36 34 31 29 27 26 26 26 26 25 24 24 23 22 21 21 21 21 22 22 19 16 11 8 8 10 17 32 40 44 43 46 53 59 64 66 66 67 68 69 69 70 70 71 71 72 73 73 72 71
12 12 13 15 16 17 16 16 17 19 21 21 18 14 11 11 12 13 14 15 16 18 22 28 35 40 45 46 47 48 50 52 55 56 57 57 56 53 49 42 35 29 25 25 24 24 24 23 23 22 21 21 20 21 21 22 20 17 12 9 8 8 12 21 30 38 42 47 53 60 64 64 65 66 67 67 67 68 68 69 70 70 71 71 71 70
12 13 13 15 16 17 16 16 17 18 21 20 17 13 10 10 11 13 15 16 18 21 26 34 41 48 54 55 55 56 59 62 64 66 66 66 66 65 65 61 54 45 35 28 25 23 22 22 22 21 21 20 20 20 20 21 20 18 13 10 8 8 9 15 22 30 37 44 51 58 62 63 64 65 66 67 67 67 67 68 69 69 70 70 71 70
12 13 14 15 16 17 17 16 17 18 21 20 16 13 10 11 12 15 17 19 21 25 30 38 45 51 54 57 60 62 64 66 68 68 68 68 68 68 67 67 66 62 55 44 35 27 22 21 21 21 20 20 19 19 19 19 19 18 15 10 8 7 9 13 18 24 31 39 47 54 60 62 63 63 64 65 66 66 67 67 67 68 68 69 71 71
13 13 14 15 16 17 17 16 17 18 20 19 16 13 11 12 14 16 19 21 24 27 32 40 45 49 51 55 59 63 67 69 69 70 70 70 70 70 69 68 67 66 63 60 52 41 29 24 21 20 19 19 18 18 18 18 19 18 16 11 8 7 9 12 17 22 28 35 43 50 56 60 62 62 63 63 63 64 65 66 67 67 67 68 69 69
13 13 14 15 16 17 17 16 16 17 20 19 17 14 12 13 15 18 20 23 25 29 34 39 43 47 50 54 58 63 68 70 71 71 71 71 71 70 70 69 68 67 65 65 60 52 41 31 23 19 18 18 18 18 17 17 18 18 17 13 9 7 9 12 17 22 28 34 41 48 54 58 60 61 61 61 61 62 63 64 65 66 67 68 68 68
13 13 14 14 16 17 17 16 16 17 19 19 17 15 13 14 16 18 21 24 26 29 34 38 41 44 48 52 57 62 67 70 72 72 72 72 71 71 71 70 70 68 67 66 63 57 47 35 25 20 18 18 17 17 16 16 17 17 17 14 10 7 8 13 18 24 30 36 42 49 54 58 60 61 60 60 59 59 60 61 62 64 66 67 67 67
13 13 14 14 15 17 17 17 16 16 18 19 18 17 15 15 16 18 21 24 27 29 33 36 39 42 46 50 54 59 65 70 72 72 71 71 71 71 71 71 71 70 69 67 64 59 50 36 26 19 17 17 17 17 16 16 16 16 16 15 12 9 7 13 19 26 33 38 43 49 53 56 58 59 58 58 58 58 58 59 60 61 63 66 67 67
13 13 14 14 15 16 17 17 17 16 17 18 19 18 17 16 16 18 20 23 26 28 31 34 37 40 44 48 52 57 62 67 70 72 72 72 72 72 72 71 71 71 70 68 66 61 53 40 29 20 16 16 16 16 16 16 15 15 16 15 13 11 7 11 19 28 36 40 43 45 47 50 52 54 55 56 57 57 57 57 57 58 60 64 66 66
14 14 14 14 15 16 17 18 17 17 17 18 19 19 18 18 17 17 19 21 24 26 28 30 33 37 41 45 49 54 59 64 68 71 72 72 72 72 72 71 71 70 70 68 67 64 60 47 34 22 16 15 15 16 16 15 15 15 15 15 14 12 9 10 15 25 36 43 44 42 41 42 44 47 50 52 55 56 57 56 55 56 57 61 63 65
14 14 14 14 15 15 17 18 18 17 16 17 18 19 20 19 18 18 18 20 22 24 25 27 30 33 36 40 45 50 55 60 64 67 68 68 69 70 71 71 71 70 70 69 68 67 65 56 42 28 17 14 14 15 15 15 15 15 15 15 15 14 11 9 11 17 29 42 47 46 41 39 39 40 44 48 51 53 55 55 54 53 54 57 60 62
14 14 14 14 15 15 16 17 18 18 17 17 17 18 20 20 20 20 19 20 21 22 24 25 26 29 31 35 38 43 48 52 56 58 59 59 60 62 66 68 69 70 70 70 70 69 68 64 54 40 23 15 13 14 15 15 15 15 14 14 14 14 13 11 9 10 18 32 44 50 50 45 42 40 41 44 48 51 52 53 52 51 51 54 57 60
Wind_Speed
69 70 71 72 73 74 75 75 76 76 77 78 78 78 79 78 78 77 76 74 73 71 69 67 66 65 64 63 64 64 64 63 63 63 63 63 63 63 63 63 62 59 57 53 51 50 49 49 49 49 48 47 46 45 44 43 42 41 43 47 53 57 58 58 57 56 56 57 56 55 53 51 50 51 54 56 59 60 60 61 63 67 71 75 75 73
69 70 71 72 73 74 74 75 76 76 76 77 77 78 78 77 77 76 75 73 71 69 67 65 64 63 63 63 63 63 62 62 62 62 62 62 62 62 62 62 61 59 56 53 51 49 48 48 48 47 47 46 45 44 43 42 41 41 42 47 53 57 58 58 57 56 56 56 56 56 56 55 54 54 56 59 61 62 61 62 63 64 66 72 71 69
69 70 71 72 73 73 74 75 75 76 76 76 77 77 76 76 75 74 73 71 69 67 65 63 62 62 62 63 62 62 61 61 61 61 61 61 61 60 60 60 59 57 55 53 51 49 47 47 46 45 45 44 43 42 42 41 40 39 41 47 53 57 59 58 58 57 57 57 58 59 61 60 56 53 54 57 58 58 58 60 60 61 63 70 70 68
69 70 71 72 73 73 74 74 74 75 75 76 76 76 75 75 74 73 71 69 66 64 63 61 61 62 62 62 62 61 60 60 60 60 60 60 59 59 58 58 57 55 54 52 50 48 46 46 45 44 43 42 41 41 40 39 38 38 40 47 54 58 60 60 60 59 58 59 61 63 64 61 54 49 50 51 51 50 51 54 57 59 62 68 69 68
69 70 71 72 72 73 73 74 74 74 75 75 75 74 74 73 72 71 69 67 64 62 61 61 61 61 62 62 61 60 60 59 59 59 59 59 58 57 56 55 54 53 52 50 48 47 45 44 43 42 41 40 40 39 39 38 37 37 40 47 55 60 62 62 62 60 58 61 64 66 65 59 51 46 47 48 48 46 46 50 54 59 63 69 69 66
69 70 71 72 72 72 73 73 73 74 74 75 74 74 73 72 71 69 67 64 62 61 60 60 60 61 61 61 61 60 60 59 59 58 58 58 57 56 54 53 52 51 50 49 47 46 44 42 41 40 39 39 38 38 38 37 35 35 39 47 56 62 64 65 63 61 60 64 68 69 66 57 49 45 47 49 49 48 48 49 53 59 65 70 69 66
69 70 71 71 72 72 72 72 73 73 74 74 74 74 73 71 69 67 65 63 61 60 60 60 60 61 61 61 60 60 60 59 59 58 57 56 55 54 52 51 50 49 48 47 46 44 43 41 40 38 37 37 37 37 36 35 34 34 38 48 57 64 66 66 64 63 64 68 71 71 66 57 49 45 47 50 52 51 51 51 54 59 67 71 68 65
69 69 70 71 71 72 72 72 72 73 73 74 73 73 72 71 68 66 63 61 60 59 60 61 61 61 61 61 61 60 60 59 58 57 56 55 53 52 51 49 48 47 46 45 44 43 41 40 38 37 36 35 35 35 34 33 32 33 38 49 59 66 68 68 65 65 69 72 73 72 65 57 49 46 47 51 54 54 54 53 55 60 69 71 68 66
68 69 70 70 70 71 71 72 72 73 73 73 73 72 71 70 68 66 63 61 60 60 61 61 62 62 62 61 61 60 60 59 58 57 55 54 52 51 50 48 47 46 45 44 42 41 39 38 37 35 34 33 33 33 33 32 31 32 37 49 61 68 70 69 67 68 72 74 75 72 64 57 50 47 48 52 55 57 56 56 57 62 70 71 70 69
68 68 69 70 70 71 71 72 73 73 73 73 73 72 70 69 67 66 64 63 61 61 61 62 62 62 62 61 61 60 60 59 58 56 54 53 52 50 49 48 47 46 44 43 41 39 38 36 35 34 33 32 32 31 31 30 29 30 37 49 62 70 72 70 69 71 74 76 75 71 63 56 50 47 49 54 58 59 59 59 61 66 73 74 73 72
68 68 69 70 71 71 72 72 73 73 73 74 73 73 71 69 67 65 64 63 62 62 61 61 61 61 61 61 61 60 59 58 57 55 53 52 51 50 49 47 46 45 43 41 39 37 36 35 34 33 31 31 30 30 29 29 28 29 36 50 63 71 73 72 72 72 74 77 76 70 62 55 50 48 49 55 60 63 63 64 66 70 76 77 76 75
67 68 69 70 71 72 73 73 74 74 74 73 73 72 71 69 67 65 63 62 61 61 60 60 60 60 59 60 60 59 58 57 55 54 53 51 50 49 48 47 45 44 42 40 37 35 34 33 32 32 30 29 28 28 28 27 26 28 36 49 62 71 74 74 73 73 75 78 76 69 62 56 52 50 50 55 61 65 68 69 72 76 80 81 80 80
68 69 70 71 71 72 73 73 73 73 73 72 71 70 69 68 66 64 62 61 60 59 59 59 59 59 58 58 58 58 57 56 54 53 52 50 49 49 48 46 44 42 40 38 35 33 32 32 31 30 29 28 27 26 26 25 25 27 35 48 62 71 74 74 73 74 78 79 76 68 61 57 55 53 52 56 61 65 69 72 75 77 80 84 87 87
68 69 70 71 71 72 72 72 72 72 72 71 70 69 67 65 63 61 60 60 59 58 58 58 58 58 57 57 57 57 56 55 54 52 51 49 48 48 47 45 43 41 38 36 34 32 31 30 30 29 28 27 26 25 25 24 24 26 35 48 61 69 72 72 73 76 80 80 75 68 62 60 59 57 55 57 61 66 69 72 73 74 76 82 87 90
68 69 69 70 70 71 71 71 71 71 71 70 69 68 66 64 62 60 58 58 58 58 58 58 58 57 56 55 56 56 56 55 54 52 50 48 47 46 45 44 42 39 37 34 32 30 29 29 29 28 27 26 25 24 23 23 23 26 35 48 59 67 70 72 76 80 82 79 74 68 65 65 64 61 58 59 63 67 69 70 69 68 71 77 83 88
68 68 69 69 70 70 70 70 70 70 70 69 68 66 64 62 60 59 57 57 57 57 57 57 57 57 56 55 54 55 55 55 54 52 49 47 45 44 43 42 40 37 35 33 31 29 28 28 28 27 26 25 24 23 22 21 22 26 35 48 59 66 70 75 79 82 82 79 74 69 68 69 67 64 60 61 65 69 70 70 68 67 70 75 81 86
67 67 68 69 69 69 69 69 69 69 69 69 67 65 63 60 58 57 56 56 56 56 56 56 57 57 56 55 54 54 54 54 53 51 49 46 44 42 40 39 38 35 33 31 29 28 27 27 27 26 26 24 23 22 21 20 21 26 37 50 60 68 73 78 82 83 82 78 74 71 71 71 69 65 62 64 67 71 72 71 70 70 72 75 79 84
66 66 67 68 68 68 68 68 68 69 68 67 66 64 62 59 57 56 55 55 55 55 56 56 56 56 55 55 54 53 53 52 52 50 48 45 42 40 38 37 36 34 32 30 28 27 27 26 26 25 25 24 23 21 20 19 20 27 39 53 63 71 77 81 83 84 82 78 75 73 72 71 68 65 64 66 69 72 73 73 72 72 74 76 80 84
65 65 66 67 67 67 67 67 67 67 67 66 64 62 60 58 56 55 54 54 54 55 55 55 55 55 55 55 54 53 52 51 50 49 46 44 41 38 36 35 34 32 30 28 27 26 26 25 25 24 24 23 22 20 19 18 20 28 42 56 67 75 80 83 84 84 82 79 76 74 72 70 67 65 65 67 70 72 73 73 73 74 74 76 80 83
64 65 65 66 66 67 67 66 66 65 65 64 63 61 58 56 55 54 53 54 54 54 54 54 54 54 54 54 53 52 50 49 48 47 45 42 39 36 34 33 32 31 29 28 26 26 25 24 24 23 22 22 21 19 18 17 20 30 45 60 71 78 82 84 85 84 82 79 76 74 72 69 67 65 65 67 70 73 74 75 75 74 74 76 79 81
63 64 64 65 65 65 65 64 64 64 63 62 61 59 57 56 55 54 54 54 54 54 54 53 53 53 53 53 52 50 48 47 46 45 43 39 36 34 32 32 31 30 28 27 26 25 24 23 23 22 21 21 20 18 16 16 20 33 49 63 74 80 84 85 86 84 82 79 77 74 72 69 66 64 64 66 70 73 76 76 76 75 75 77 79 82
62 63 63 63 63 63 63 63 62 62 61 60 59 58 57 56 55 54 54 54 54 53 53 52 52 52 52 51 50 47 45 44 44 42 40 37 33 31 30 30 30 29 27 26 25 24 23 22 22 21 20 20 19 17 15 15 21 35 52 66 76 82 85 86 86 84 82 79 77 74 72 69 66 64 64 66 70 74 78 78 78 77 77 78 80 83
61 62 62 62 61 61 61 61 61 60 60 58 57 56 55 55 54 54 54 53 53 52 52 52 51 51 50 49 47 45 43 42 41 39 37 34 31 29 29 29 29 28 27 25 24 23 22 21 21 20 20 19 18 17 15 15 22 37 55 69 78 84 86 87 86 84 82 79 77 74 72 69 66 65 64 66 70 74 78 79 79 79 79 80 81 83
60 60 60 60 60 60 60 60 60 59 59 57 56 55 54 54 53 53 53 53 52 52 51 51 51 50 48 46 44 42 41 40 38 37 34 31 29 28 28 29 28 27 26 24 23 22 21 20 20 20 19 19 18 16 14 14 23 38 57 71 80 85 87 87 86 84 81 79 76 74 72 70 67 66 65 66 68 72 75 78 79 79 79 80 81 83
58 58 58 58 59 59 59 59 59 58 57 56 55 54 53 53 53 53 53 52 52 52 51 51 50 48 46 43 41 39 38 37 36 34 32 30 28 28 28 29 28 27 25 24 23 22 21 20 20 19 19 18 17 15 13 13 23 39 58 72 81 86 88 88 87 84 81 79 76 74 73 71 69 67 65 65 66 69 72 75 78 79 80 81 82 84
57 57 57 57 58 58 58 58 58 57 55 54 53 52 52 52 52 53 53 52 52 52 51 50 48 45 42 40 38 37 36 35 34 32 30 29 28 28 28 29 28 27 25 23 22 21 20 20 19 19 19 18 17 15 12 12 22 39 59 74 83 87 89 89 87 84 81 79 77 75 74 72 71 69 66 65 65 66 68 72 76 79 80 81 82 83
55 56 56 56 57 57 57 57 56 55 53 52 51 51 51 52 52 52 52 52 51 51 50 48 46 42 39 36 35 34 34 33 31 30 29 28 28 28 28 28 28 26 25 23 22 21 20 20 19 19 18 18 16 14 11 12 21 38 59 74 84 88 90 89 87 85 82 79 77 76 75 74 72 71 68 66 64 64 65 69 73 77 80 81 82 83
54 54 55 55 56 56 55 55 54 52 51 50 49 50 50 51 51 51 51 51 50 49 48 45 43 40 36 34 32 32 32 31 30 29 28 28 28 28 28 28 27 26 24 22 21 21 21 20 20 19 18 17 16 14 11 11 20 37 57 74 85 89 90 90 88 85 83 80 78 77 76 75 74 73 71 68 65 63 63 66 70 75 78 81 82 83
52 53 53 54 54 54 54 53 52 50 49 48 48 48 49 50 50 50 50 49 48 47 45 42 39 36 34 32 30 30 30 29 28 28 28 28 27 27 27 27 26 25 23 22 21 21 20 20 20 19 18 17 16 14 11 10 18 34 55 74 85 90 91 91 89 86 83 81 78 77 77 77 78 77 75 71 67 64 63 64 67 71 76 79 81 83
51 52 52 53 53 53 52 52 50 49 47 47 46 47 48 48 48 48 47 47 46 44 41 39 36 34 32 31 29 28 28 28 28 27 27 27 27 27 27 26 25 24 23 21 20 20 20 20 20 19 18 17 16 14 11 9 16 31 52 71 85 91 93 92 90 87 84 82 79 78 77 79 81 82 80 76 71 67 65 64 65 68 73 77 80 83
51 51 51 52 52 52 51 50 49 47 46 45 45 45 46 46 46 46 45 44 43 41 39 36 34 32 31 30 29 28 27 27 27 27 27 27 26 26 26 25 24 23 22 21 20 19 19 19 20 19 19 18 16 14 11 8 13 28 47 68 83 92 94 93 91 89 86 83 80 79 79 81 84 87 86 81 75 70 67 65 65 66 69 73 77 81
50 50 50 51 51 51 50 49 47 45 44 43 43 43 44 44 44 43 42 42 40 39 37 35 33 31 30 29 28 27 27 26 26 27 27 26 25 25 25 24 23 22 21 21 20 19 18 18 18 19 18 18 16 15 12 8 11 24 43 64 81 91 95 95 93 90 87 84 82 80 80 82 85 88 89 85 79 74 70 67 65 65 67 70 73 77
49 49 50 50 50 49 49 47 45 44 42 42 42 42 42 41 41 41 40 39 38 37 35 34 32 31 29 28 27 27 27 26 26 26 26 25 24 24 24 23 22 21 20 20 20 19 19 18 18 18 18 17 17 15 12 9 9 20 38 59 78 90 96 96 94 91 88 85 83 82 81 82 85 88 89 86 82 76 72 69 67 66 66 67 70 73
48 49 49 49 49 48 47 46 44 42 41 40 40 40 40 39 39 39 38 38 37 35 34 33 32 30 29 28 27 26 26 26 26 25 25 24 23 23 22 22 21 20 20 19 19 19 19 18 18 18 17 17 17 15 13 9 7 16 33 54 74 88 96 98 95 92 89 87 85 84 82 82 84 86 87 85 81 77 73 70 69 67 67 67 68 70
47 48 48 48 48 47 46 44 42 41 40 39 39 38 37 37 37 37 36 36 35 34 33 32 31 30 29 28 27 26 25 25 25 25 24 23 23 22 22 21 21 20 19 19 18 18 18 18 18 18 17 17 16 16 14 11 7 12 27 49 71 87 96 98 96 93 90 89 87 85 84 82 83 83 84 83 80 76 73 71 70 69 69 68 68 69
46 47 47 47 47 46 45 43 41 39 38 37 37 36 35 35 35 35 34 34 34 33 32 32 31 30 29 28 27 26 25 25 25 24 24 23 22 22 21 21 20 20 19 19 18 18 18 18 18 18 17 17 16 15 14 12 8 9 22 42 65 84 95 99 98 95 93 91 89 88 85 83 82 81 81 80 77 75 73 72 71 70 70 70 70 71
45 46 46 46 46 45 43 41 39 37 36 36 35 34 33 33 33 33 33 33 32 32 31 31 30 30 29 28 27 26 25 25 24 24 23 23 22 21 21 20 20 20 19 19 18 18 18 18 18 18 17 17 16 15 14 12 9 7 16 34 57 79 92 97 99 98 96 95 92 90 87 84 82 80 79 77 75 74 72 72 71 71 71 72 73 74
44 45 45 45 45 44 42 40 38 36 35 34 33 32 31 30 30 31 31 31 31 30 30 29 29 29 28 27 27 26 25 25 24 24 23 23 22 21 21 20 20 19 19 19 18 18 18 18 18 17 17 17 16 15 14 13 10 6 11 26 48 70 87 95 98 99 99 98 96 93 89 86 83 80 78 76 74 73 72 72 72 72 72 73 74 77
44 44 44 44 43 42 41 39 36 34 33 32 31 29 29 28 28 29 29 29 29 29 28 27 27 27 26 26 25 25 24 24 24 24 23 23 23 22 21 21 20 20 19 19 19 18 18 18 17 17 17 16 16 15 14 13 11 7 9 20 37 58 79 91 97 99 100 100 98 94 90 87 83 80 78 76 74 74 73 72 72 72 72 73 75 78
43 43 43 43 42 41 39 37 35 33 31 30 29 27 26 26 26 27 27 27 27 27 26 25 25 24 24 24 23 23 23 23 23 23 23 23 23 23 23 22 21 21 20 19 19 18 18 17 17 17 16 16 15 15 14 13 11 8 7 15 29 46 66 84 94 98 100 100 98 95 91 88 84 81 78 76 75 75 75 74 73 73 73 74 76 79
42 42 42 42 41 40 38 36 33 31 29 28 27 26 25 24 24 25 25 25 25 24 24 23 22 22 22 22 22 22 22 22 22 23 23 24 24 24 24 24 23 22 21 20 19 18 18 17 17 16 16 16 15 14 14 13 11 8 6 12 23 38 56 74 87 95 99 100 99 96 92 88 85 82 79 78 77 76 76 75 74 74 74 76 78 81
41 41 41 41 40 39 37 35 32 30 28 27 25 24 23 22 22 22 22 22 22 22 21 21 20 20 21 21 21 22 22 21 22 22 23 24 24 25 25 25 25 24 23 22 20 19 18 17 16 16 15 15 14 14 13 12 11 8 6 10 20 34 49 64 79 91 97 100 99 97 93 89 86 83 80 79 78 77 76 75 75 74 74 76 79 83
40 40 40 39 39 38 36 34 31 29 27 26 24 23 22 21 20 20 20 20 20 20 19 19 18 18 19 20 20 21 21 21 21 22 22 23 24 25 25 26 26 26 25 23 22 20 19 17 16 15 15 14 14 13 12 12 10 8 6 8 17 30 43 58 73 85 94 98 99 97 94 90 87 84 82 80 79 78 77 76 75 75 76 77 79 83
39 39 39 38 38 37 35 33 31 28 26 25 23 22 20 19 19 19 19 19 19 18 18 17 17 17 17 18 19 20 20 20 21 21 21 22 23 23 24 25 26 26 26 24 23 22 20 18 16 15 14 14 13 13 12 11 10 8 6 6 15 27 40 55 69 81 90 95 98 97 94 91 88 85 83 81 80 79 78 77 76 76 76 78 81 84
38 38 38 38 37 36 35 33 30 28 26 24 22 21 19 19 18 18 18 18 18 18 17 17 16 15 15 16 17 18 19 19 20 20 21 21 22 22 22 23 24 25 25 25 24 23 21 19 17 15 14 13 13 12 11 10 9 8 6 5 12 23 38 54 68 79 87 92 95 95 93 90 88 85 83 82 81 80 79 78 77 76 77 78 81 85
38 38 37 37 36 35 34 32 30 27 25 23 22 20 19 18 18 18 18 18 18 18 17 17 16 16 15 15 15 16 17 19 19 20 20 21 21 21 21 22 23 24 25 25 24 23 22 20 17 15 13 13 12 12 11 10 9 7 6 4 9 19 34 50 65 77 86 91 93 92 91 89 87 85 84 83 82 81 80 79 78 77 77 79 82 86
37 37 36 36 35 34 33 32 30 27 25 24 22 21 20 19 18 18 18 18 18 19 18 18 18 17 16 15 15 16 17 18 19 20 20 21 21 21 22 22 23 24 25 25 25 24 22 20 18 16 14 12 12 11 11 10 8 7 5 4 7 15 28 45 61 75 84 89 91 90 89 87 86 85 84 84 83 82 81 80 79 78 78 80 83 87
37 37 36 36 35 34 33 31 30 28 26 24 23 22 21 20 19 19 19 19 19 19 20 20 20 19 18 18 17 17 18 19 20 21 22 22 23 23 23 23 24 25 26 26 26 25 23 21 18 16 14 12 11 11 10 9 8 7 5 4 5 11 22 38 56 71 81 87 89 89 89 87 86 85 85 84 83 82 82 81 80 80 79 80 83 87
36 36 36 35 35 34 33 31 30 28 26 25 24 23 22 21 21 21 21 20 20 21 21 21 22 21 21 21 21 21 21 22 22 23 24 24 25 25 25 25 25 25 26 26 26 26 24 22 19 17 14 13 11 10 9 9 8 7 6 5 5 9 16 30 47 64 77 83 86 87 88 88 88 88 87 86 85 84 83 83 82 81 80 81 83 87
36 36 35 35 34 34 32 31 30 28 26 25 25 24 24 23 23 23 22 22 22 23 23 23 24 24 24 24 24 24 24 25 25 26 26 27 27 27 27 27 26 26 26 26 26 25 24 23 20 17 15 13 11 10 9 9 8 7 6 5 6 8 12 21 36 53 70 79 83 84 85 87 88 89 88 87 87 86 85 84 84 83 83 82 84 88
36 35 35 35 34 33 33 31 30 28 27 26 25 25 25 25 25 24 24 24 24 24 25 25 26 26 27 27 27 27 27 28 28 28 29 29 30 29 29 28 28 27 26 26 25 25 24 23 21 19 16 13 11 10 9 9 8 7 7 6 6 8 11 16 26 40 58 72 79 82 82 83 84 86 88 88 89 88 87 87 86 86 85 85 86 88
Wind_Direction
305 306 307 308 309 309 310 310 310 311 312 314 315 316 316 316 316 315 314 313 312 311 309 309 308 307 306 306 306 305 305 305 305 305 305 305 305 305 305 305 305 304 304 302 300 298 297 295 293 292 291 289 287 284 280 276 269 259 246 231 220 214 211 210 209 208 205 202 203 203 201 198 198 202 206 209 211 212 214 217 219 217 213 208 205 206
306 307 308 309 309 310 310 311 312 313 314 315 316 316 317 316 316 315 314 313 312 311 309 309 308 307 307 306 306 306 306 306 306 306 306 305 305 305 305 305 304 304 303 302 300 299 297 295 293 292 291 289 287 284 280 274 268 258 243 228 217 211 207 206 205 204 201 201 202 201 195 193 194 199 203 206 209 212 215 219 219 217 212 204 201 203
307 308 309 309 310 310 311 312 313 314 315 316 317 317 317 316 316 315 314 313 312 311 309 308 307 307 306 306 307 307 307 307 307 307 306 306 306 306 305 304 304 303 302 302 300 299 297 295 293 292 291 289 287 283 279 274 267 256 241 225 214 207 204 202 201 199 199 201 201 198 191 190 192 195 197 201 205 210 216 220 219 215 209 201 198 200
308 309 309 310 310 311 312 313 314 315 316 317 317 317 317 316 316 315 314 313 312 311 309 308 307 306 306 307 308 308 308 308 308 308 307 307 306 306 305 304 303 302 302 301 300 299 297 295 294 292 291 289 287 284 279 274 266 254 238 222 211 204 200 198 197 197 199 202 200 195 189 188 189 190 191 195 200 206 213 218 216 211 204 196 194 198
309 309 310 310 311 312 314 315 316 316 316 317 317 317 317 316 316 315 315 313 312 310 309 308 307 307 307 308 309 310 310 310 309 309 308 308 307 306 305 304 303 302 301 300 300 298 297 295 294 293 292 290 287 284 280 274 265 252 235 219 208 201 197 195 195 196 199 201 198 192 187 186 185 185 185 188 192 197 204 211 211 206 198 191 189 195
309 310 311 311 313 314 315 316 316 316 317 317 317 318 317 317 316 316 315 314 312 310 309 308 307 308 309 310 311 312 311 311 311 310 309 309 308 307 306 305 304 303 302 301 300 298 296 295 293 292 291 289 287 283 280 274 265 250 232 216 205 198 194 193 194 196 199 199 195 189 186 185 183 181 179 181 183 188 193 202 205 201 193 187 187 194
310 311 311 313 314 315 316 316 316 317 317 318 318 318 318 318 317 316 315 313 312 310 309 308 309 310 311 312 313 313 313 313 312 311 310 309 309 308 307 305 304 303 302 301 300 298 296 294 293 292 290 288 286 283 279 274 264 248 230 213 202 196 192 192 194 197 199 196 192 187 185 184 181 178 175 175 178 181 186 193 198 195 188 185 187 194
311 312 313 314 315 315 316 316 317 317 318 318 319 319 319 318 318 316 315 313 312 310 310 310 311 312 313 315 315 315 315 314 313 312 312 311 310 309 308 307 305 304 303 301 300 298 296 294 293 292 290 289 286 284 280 274 263 247 227 211 200 194 191 192 194 197 198 194 189 186 185 184 181 176 171 172 174 177 181 188 192 191 185 184 188 193
312 312 313 314 315 315 316 317 317 318 319 319 319 319 319 319 318 317 315 314 313 312 312 313 314 315 316 317 317 317 316 315 315 314 313 312 311 311 310 308 307 306 304 302 300 298 296 294 293 292 291 289 287 285 281 274 263 245 224 209 199 193 191 192 195 197 196 191 188 186 185 183 180 174 170 170 172 176 180 184 188 188 185 185 188 192
312 313 314 315 315 316 317 318 318 319 320 320 320 320 320 319 318 317 316 315 314 314 315 316 317 318 319 319 319 318 317 316 315 315 314 314 313 312 311 310 308 307 305 303 300 298 296 294 293 292 291 290 288 286 282 275 263 243 222 207 198 193 191 192 195 196 193 189 186 185 184 181 177 172 168 168 171 176 180 184 187 187 185 185 187 189
313 314 314 315 316 317 318 319 320 320 320 321 321 320 320 319 319 318 317 317 317 317 317 318 319 320 321 320 320 319 317 316 316 315 315 314 314 313 312 310 309 307 305 303 301 298 296 294 293 293 292 291 290 287 283 276 263 242 220 206 198 193 191 193 196 195 191 187 185 184 182 179 175 171 168 168 170 174 179 183 186 186 186 186 186 187
314 314 315 316 317 318 319 320 320 321 321 321 321 321 321 320 320 319 318 318 318 319 319 320 321 321 321 320 319 318 317 316 315 315 315 315 315 314 312 311 309 307 305 303 301 298 296 295 294 294 294 293 291 288 284 276 262 241 219 205 197 194 192 194 195 193 189 186 184 183 181 177 173 170 168 167 168 171 176 181 184 186 187 188 188 188
314 315 316 317 318 319 320 321 321 321 322 322 322 322 322 321 321 320 320 320 320 320 320 321 321 321 321 320 319 318 317 316 315 316 316 316 316 315 313 311 309 307 305 303 301 298 296 295 295 295 295 294 292 289 284 276 261 239 218 204 197 194 193 194 193 190 187 185 184 182 179 174 171 170 170 168 167 168 172 177 183 188 191 191 191 190
315 316 317 319 320 320 321 321 322 322 322 322 322 323 323 322 322 321 321 321 321 321 321 321 321 321 321 320 319 317 316 316 316 316 317 317 317 315 313 311 309 307 305 303 301 299 297 296 296 296 296 295 292 289 283 275 260 237 216 204 198 195 194 193 190 187 186 184 183 180 176 172 172 173 172 168 165 165 168 174 182 189 194 194 193 193
316 317 318 319 320 321 321 322 322 322 322 323 323 323 323 323 322 322 321 321 321 321 321 320 320 321 321 320 319 318 317 316 316 317 318 318 318 316 313 311 309 308 306 304 302 300 299 298 298 298 297 295 293 289 283 274 257 234 214 203 197 195 192 189 187 186 185 183 182 178 174 172 173 175 174 169 165 164 166 172 181 189 192 193 194 194
318 318 319 320 321 321 322 322 322 322 323 323 323 324 324 324 323 323 322 322 321 321 320 320 320 321 321 321 320 318 317 316 317 317 318 319 319 317 314 311 310 308 306 305 304 302 301 300 300 300 299 296 293 289 282 272 254 230 211 201 196 192 189 187 186 185 184 182 180 177 173 172 174 176 175 170 166 164 165 171 179 185 188 189 190 192
318 319 320 321 321 322 322 322 322 323 323 324 324 324 324 324 324 323 323 322 321 321 320 320 320 321 321 321 320 319 318 317 317 318 320 321 320 318 314 311 310 309 308 307 305 304 303 303 302 302 300 298 295 289 282 270 249 225 208 199 193 190 187 186 185 185 183 182 179 176 174 173 174 175 173 169 166 165 166 170 176 181 183 184 187 189
319 320 320 321 321 322 322 323 323 323 324 324 324 324 325 325 324 324 323 322 321 320 320 320 321 321 321 321 321 320 319 318 318 319 321 322 322 319 315 312 310 309 309 309 308 307 306 305 305 304 302 300 296 291 282 268 244 220 204 196 191 187 186 185 185 184 183 181 179 177 174 173 173 173 170 167 166 166 167 171 175 179 181 183 186 188
319 320 321 321 322 322 323 323 324 324 324 324 324 324 325 325 325 324 323 322 321 320 320 321 321 321 321 321 321 321 320 319 319 321 322 323 323 320 316 312 311 311 312 311 310 309 308 308 308 307 304 302 298 292 283 265 238 214 201 193 189 187 186 186 185 184 183 181 179 177 175 174 172 170 167 165 164 165 168 171 175 178 180 182 185 188
320 321 321 321 322 323 324 324 324 324 323 323 324 325 325 325 325 324 323 322 321 321 321 321 322 322 321 321 321 321 321 321 321 322 323 324 324 321 317 313 313 313 314 314 313 312 311 311 310 309 306 304 300 294 283 262 232 210 198 192 188 187 187 186 185 184 183 181 179 178 176 174 172 169 166 163 162 164 168 172 175 177 178 181 184 186
320 321 321 322 322 323 324 324 324 323 323 323 324 325 326 325 325 324 323 322 322 322 322 322 322 322 322 322 322 322 322 322 322 323 324 325 324 321 317 314 314 315 316 316 315 314 314 313 312 310 308 305 302 295 283 258 226 205 196 191 189 188 188 187 185 184 182 181 180 178 176 174 172 169 165 163 162 164 168 172 175 176 178 180 183 185
321 322 322 322 323 323 323 323 323 323 323 324 325 325 326 326 325 324 324 323 323 322 323 323 323 323 323 322 323 323 323 323 323 323 324 325 324 322 318 315 316 317 318 318 317 316 316 315 314 312 310 307 303 297 282 254 220 202 195 191 190 189 188 187 185 184 182 181 180 179 177 176 173 170 166 163 162 163 167 171 173 175 176 178 181 183
321 322 323 323 323 323 323 323 323 323 324 325 326 326 326 325 325 324 324 323 323 323 324 324 324 324 324 324 324 325 325 325 324 324 325 326 325 322 318 317 318 319 320 320 318 317 317 316 314 313 311 310 306 299 283 250 216 200 194 192 190 190 189 187 185 184 183 182 181 180 178 176 174 170 167 163 162 163 166 170 172 173 175 177 180 183
322 322 322 322 322 322 322 323 323 324 325 326 326 326 326 325 325 324 324 323 324 324 325 326 326 326 326 326 326 327 326 326 326 326 326 326 325 323 320 319 320 322 322 321 320 319 318 317 315 315 314 313 310 303 285 248 214 199 194 192 191 190 189 187 185 184 183 182 181 180 178 177 175 172 168 164 162 162 165 168 171 173 174 176 179 182
321 322 322 322 322 322 323 324 325 326 327 327 327 327 326 325 324 324 324 324 325 326 327 327 327 327 327 328 328 328 327 327 327 327 327 327 326 324 322 322 323 325 325 323 322 321 320 319 318 317 317 317 315 308 288 247 212 199 194 192 192 191 189 187 186 184 183 182 181 179 178 177 175 173 170 165 162 161 163 166 169 172 174 177 180 184
321 321 322 322 322 323 324 325 326 327 327 327 327 326 325 325 324 324 325 326 327 328 329 329 329 329 329 330 330 330 329 329 328 328 328 328 327 326 324 325 326 327 327 326 324 323 322 321 320 320 320 320 319 312 292 248 212 198 194 192 192 191 190 188 186 185 183 182 181 179 178 177 176 175 172 168 164 162 162 164 167 170 173 177 180 185
321 321 322 322 323 324 325 326 327 327 327 327 326 325 325 325 325 326 327 328 329 329 329 329 330 330 331 332 332 331 330 330 329 330 329 329 329 328 327 327 329 330 330 329 327 325 325 324 324 324 324 324 323 316 296 250 213 199 194 192 192 192 190 188 186 185 184 183 181 179 178 177 177 176 174 170 167 164 163 163 165 168 171 175 180 184
321 321 322 323 324 325 326 326 327 327 327 327 326 325 325 325 326 328 329 330 330 330 330 330 331 332 333 334 334 333 331 331 331 331 331 331 330 330 330 330 332 332 332 332 330 329 328 329 329 329 329 329 327 320 300 254 214 200 194 192 192 192 191 189 187 186 185 183 181 179 178 177 177 177 176 173 170 167 165 164 164 166 169 173 178 183
321 322 322 323 324 325 326 326 327 327 327 327 326 326 326 327 328 329 330 330 331 331 331 331 332 333 335 336 336 335 333 332 332 332 332 333 332 332 332 333 334 335 335 335 334 333 332 332 333 334 334 333 331 324 306 260 217 201 195 192 192 192 191 190 188 187 186 185 183 181 178 177 177 177 178 177 174 170 167 165 164 164 167 171 176 182
321 322 323 324 324 325 326 327 327 328 328 327 327 326 327 328 329 330 330 331 331 332 332 333 334 335 336 337 338 337 335 334 333 334 334 334 334 334 335 336 337 337 338 338 338 336 334 335 336 337 337 336 334 328 312 269 222 203 196 193 192 192 191 190 189 188 187 186 184 182 179 177 177 178 180 180 178 174 171 168 165 164 165 168 173 180
322 323 323 324 325 326 326 327 328 328 328 328 327 327 327 328 329 330 331 332 333 333 334 335 335 336 338 338 338 338 336 335 335 335 335 335 336 336 337 338 339 340 340 340 340 339 338 337 338 339 339 339 337 332 320 280 227 205 197 193 192 192 192 191 190 189 189 188 186 183 180 178 177 179 181 182 181 178 174 171 167 165 164 166 170 176
323 323 324 324 325 326 327 328 328 329 328 328 327 327 328 329 330 331 332 333 334 335 336 336 337 338 338 338 338 337 337 336 335 335 336 337 337 338 339 340 341 342 342 342 342 342 341 340 339 340 340 340 338 335 326 294 235 208 199 194 193 192 192 191 191 190 190 189 187 184 181 178 178 179 182 183 183 181 177 174 171 167 165 165 168 173
323 324 324 325 326 326 327 328 329 329 328 328 328 328 329 330 331 332 334 335 336 337 337 338 338 339 339 339 338 337 337 336 336 336 336 337 338 339 340 342 343 343 343 343 343 344 344 343 342 342 341 341 340 338 331 307 246 211 200 195 193 192 192 191 191 191 191 190 188 185 182 180 179 180 182 184 184 183 180 177 175 172 169 167 168 171
324 324 325 325 326 327 328 328 329 329 328 328 328 329 330 331 332 334 335 337 338 338 339 338 339 339 339 338 338 337 336 336 336 336 337 338 339 340 341 343 344 344 344 344 344 344 344 345 345 344 343 342 341 339 335 319 265 215 201 196 194 193 192 191 191 192 191 191 189 187 184 181 180 180 182 183 184 183 182 180 178 176 174 172 170 171
324 325 325 325 326 327 328 329 329 329 328 328 329 330 331 332 333 334 336 338 339 339 339 339 339 338 338 338 338 337 336 336 335 336 337 338 340 341 342 343 344 345 345 345 344 344 345 345 345 346 346 345 344 342 338 328 288 223 203 197 194 193 192 191 192 192 192 191 190 189 186 184 182 182 182 183 184 184 183 181 180 179 179 177 176 175
325 325 325 326 326 327 328 329 329 329 329 329 329 330 331 333 334 336 337 338 339 339 339 339 339 338 339 338 338 337 337 336 336 336 337 338 340 342 343 343 344 345 345 345 345 345 345 345 346 347 348 348 347 345 341 332 306 237 205 197 194 193 192 191 191 192 192 192 191 190 188 186 184 183 183 183 184 183 183 182 181 181 181 181 181 180
325 325 325 326 326 327 328 329 329 329 329 329 329 331 332 333 335 336 338 339 339 339 339 339 339 339 339 339 339 339 338 337 336 336 337 339 340 342 343 343 344 345 345 345 345 345 345 346 347 348 349 349 349 347 344 337 319 257 210 198 195 194 193 192 192 192 192 193 193 192 190 188 187 185 184 183 183 183 182 182 181 182 182 183 184 184
325 325 325 326 326 327 328 329 329 329 328 329 330 331 332 334 335 337 338 338 338 339 338 338 339 339 340 341 341 340 340 339 338 338 339 340 341 342 343 343 344 344 345 345 346 346 346 346 347 347 348 350 350 349 346 340 329 288 222 201 196 194 194 193 193 193 193 194 194 193 192 190 188 186 185 184 184 183 183 182 182 182 182 183 185 186
325 325 325 326 326 327 328 329 329 328 328 329 330 331 333 334 335 336 337 337 337 337 337 338 339 340 341 342 342 343 343 342 342 342 343 343 343 343 343 343 343 343 344 345 345 346 346 346 347 347 348 349 350 349 347 343 334 307 240 207 198 195 195 195 194 194 194 195 195 195 193 192 190 188 187 186 185 184 184 183 182 182 182 182 184 186
325 325 325 326 326 327 328 328 328 328 328 328 329 331 333 334 335 336 336 336 335 335 336 337 338 340 342 343 344 345 345 346 347 347 348 348 347 346 345 344 343 343 343 344 345 345 345 346 346 347 348 349 350 350 349 345 338 318 256 214 201 197 196 196 196 196 196 196 196 196 194 193 191 190 189 188 186 185 184 183 182 182 181 182 183 185
325 325 325 326 326 327 328 328 328 327 327 327 328 330 332 333 334 334 334 334 334 334 335 336 337 339 341 343 343 344 345 346 348 349 350 351 351 350 348 346 344 343 343 342 343 343 344 344 345 346 347 348 349 350 349 346 340 324 271 223 206 200 197 197 198 198 198 198 198 197 195 194 193 192 191 190 189 187 185 184 183 182 182 182 183 184
325 325 325 325 326 327 328 328 327 326 325 326 327 329 330 332 333 333 333 332 332 332 333 334 335 337 338 339 340 340 341 342 344 347 349 350 350 349 348 346 345 343 342 342 341 341 342 342 343 343 344 345 346 347 348 346 341 328 288 233 211 202 198 198 198 199 200 200 200 198 197 196 195 194 194 193 191 190 187 186 184 183 182 182 183 184
324 324 325 325 326 327 327 327 326 324 323 323 324 326 328 329 329 330 330 330 329 329 330 331 333 334 336 336 336 335 335 336 339 342 345 347 347 346 345 343 342 341 341 341 340 339 339 339 339 340 341 341 342 344 346 345 342 333 303 238 212 203 200 198 198 199 200 201 201 200 199 199 198 197 196 195 193 192 190 189 186 184 183 183 183 184
324 324 324 325 326 327 327 326 324 322 321 320 321 322 323 324 325 325 325 325 324 324 324 326 328 330 333 333 332 331 330 330 333 336 340 343 344 343 341 339 337 337 337 337 337 336 335 335 335 336 336 337 338 339 342 343 342 335 312 242 212 203 200 198 198 198 200 200 201 201 201 201 200 199 198 197 195 194 193 191 189 186 184 183 183 185
323 324 324 325 326 327 326 325 323 320 318 316 316 317 318 319 319 319 319 319 318 318 318 319 321 323 327 329 329 327 325 324 327 331 335 339 340 339 337 334 332 331 331 332 332 331 331 331 331 331 331 332 333 334 336 338 338 333 317 253 214 204 200 198 197 198 199 200 200 201 201 202 202 201 201 199 198 196 195 193 191 189 186 184 184 185
323 323 324 325 326 326 326 324 322 318 315 312 311 311 312 312 312 313 313 312 312 311 311 312 313 315 318 322 323 321 319 317 319 323 329 334 336 337 335 332 328 326 326 326 327 327 327 327 327 326 325 326 327 328 330 332 333 330 318 267 217 204 199 197 196 197 197 198 199 200 201 202 202 202 202 201 200 198 197 195 193 190 188 185 184 185
322 323 323 324 325 326 325 324 321 318 313 310 307 306 306 305 306 306 306 306 305 305 305 305 305 307 310 314 315 314 312 310 311 315 322 328 333 335 334 332 328 324 323 324 324 325 325 325 324 322 321 320 320 322 324 326 326 324 315 279 221 203 198 197 196 196 196 197 198 200 201 202 203 203 203 202 201 200 199 197 195 192 189 186 185 185
321 322 323 324 325 326 325 324 321 317 312 307 303 301 300 300 300 300 300 300 300 299 299 299 299 300 302 305 307 308 306 305 306 310 317 323 329 332 333 332 330 326 323 322 323 324 324 324 322 320 317 314 313 314 316 318 319 316 307 280 229 204 198 196 196 195 195 196 198 199 201 202 203 203 203 203 203 202 201 199 197 194 190 187 186 186
321 322 323 324 325 325 325 324 322 317 312 306 301 298 296 295 295 295 295 295 295 295 295 295 295 295 297 299 301 302 303 303 305 309 315 321 326 329 331 331 330 328 324 322 321 321 322 322 321 318 314 310 307 306 308 310 309 306 296 276 240 211 200 197 196 196 196 196 197 198 200 201 202 203 203 204 204 203 202 201 199 196 192 189 187 186
320 321 322 323 324 325 325 325 322 318 312 306 300 296 293 292 292 292 292 292 292 292 292 292 292 293 293 295 297 298 300 302 305 309 314 319 323 326 328 329 328 327 325 321 319 317 318 319 319 317 313 307 303 299 298 298 298 295 286 270 245 221 204 197 196 197 197 197 197 197 199 200 202 203 203 204 204 204 203 202 200 197 194 190 188 187
320 320 321 322 323 324 325 325 323 320 314 308 301 296 292 290 289 289 289 289 289 289 289 290 290 290 291 292 294 296 298 300 303 307 312 317 320 323 325 326 326 326 324 321 317 313 312 313 314 315 313 307 300 294 289 287 285 283 278 266 247 228 212 201 197 198 198 199 199 198 198 198 200 201 202 203 203 203 203 203 201 199 195 192 189 188